This is the latest recevied weather packets stored in our database for station/object KD8BMB. If no packets are shown the sender has not sent any weather packets the latest 10 day(s).
| Time | Temp. | Humidity | Pressure | Rain* | Wind** | Luminosity | Snow |
|---|---|---|---|---|---|---|---|
| 1777984164 | 9.44° C | 70% | 1004.3 hPa | 0 mm | - | 125 W/m² | - |
| 1777983862 | 9.44° C | 70% | 1004.2 hPa | 0 mm | - | 78 W/m² | - |
| 1777983558 | 9.44° C | 71% | 1004 hPa | 0 mm | - | 70 W/m² | - |
| 1777983255 | 9.44° C | 71% | 1003.9 hPa | 0 mm | - | 70 W/m² | - |
| 1777982951 | 9.44° C | 71% | 1003.7 hPa | 0 mm | - | 37 W/m² | - |
| 1777982647 | 9.44° C | 69% | 1003.7 hPa | 0 mm | - | 36 W/m² | - |
| 1777982346 | 9.44° C | 70% | 1003.7 hPa | 0 mm | - | 35 W/m² | - |
| 1777982043 | 9.44° C | 70% | 1004 hPa | 0 mm | - | 47 W/m² | - |
| 1777981741 | 9.44° C | 70% | 1003.4 hPa | 0 mm | - | 59 W/m² | - |
| 1777981437 | 9.44° C | 70% | 1004 hPa | 0 mm | - | 26 W/m² | - |
| 1777981134 | 9.44° C | 69% | 1003.5 hPa | 0 mm | - | 34 W/m² | - |
| 1777980830 | 10° C | 69% | 1003.5 hPa | 0 mm | - | 47 W/m² | - |
| 1777980526 | 9.44° C | 69% | 1003.2 hPa | 0 mm | - | 57 W/m² | - |
| 1777980224 | 9.44° C | 71% | 1003.1 hPa | 0 mm | - | 50 W/m² | - |
| 1777979920 | 9.44° C | 71% | 1002.9 hPa | 0 mm | - | 47 W/m² | - |
| 1777979615 | 8.89° C | 74% | 1002.9 hPa | 0 mm | - | 48 W/m² | - |
| 1777979311 | 8.89° C | 76% | 1002.8 hPa | 0 mm | - | 37 W/m² | - |
| 1777979009 | 8.89° C | 76% | 1002.4 hPa | 0 mm | - | 28 W/m² | - |
| 1777978705 | 8.89° C | 77% | 1002.3 hPa | 0 mm | - | 23 W/m² | - |
| 1777978401 | 8.89° C | 79% | 1002.3 hPa | 0 mm | - | 21 W/m² | - |
| 1777978097 | 8.89° C | 79% | 1002.3 hPa | 0 mm | - | 15 W/m² | - |
| 1777977796 | 8.89° C | 79% | 1002.1 hPa | 0 mm | - | 13 W/m² | - |
| 1777977491 | 8.89° C | 80% | 1002 hPa | 0 mm | - | 8 W/m² | - |
| 1777977189 | 8.89° C | 80% | 1002 hPa | 0 mm | - | 5 W/m² | - |
| 1777976887 | 8.89° C | 80% | 1001.6 hPa | 0 mm | - | 2 W/m² | - |
* Rain latest hour (hover to see other rain measurements)
** Current wind speed in m/s (hover to see current wind gust speed)